�������l�o���
Date,Time,MP-1(��Sv/h),MP-2(��Sv/h),MP-3(��Sv/h),MP-4(��Sv/h),MP-5(��Sv/h),MP-6(��Sv/h),MP-7(��Sv/h),MP-8(��Sv/h),����,����(m/s),���J
2024/05/20,00:00,0.502,0.772,0.484,0.950,0.690,0.314,0.550,0.514,��쐼,3.4,�L
2024/05/20,00:10,0.500,0.773,0.484,0.952,0.690,0.314,0.550,0.515,��쐼,3.8,�L
2024/05/20,00:20,0.504,0.773,0.485,0.950,0.690,0.314,0.550,0.516,��쐼,3.9,�L
2024/05/20,00:30,0.503,0.771,0.486,0.953,0.689,0.316,0.551,0.515,��쐼,4.6,�L
2024/05/20,00:40,0.503,0.770,0.485,0.950,0.690,0.316,0.550,0.515,��,4.6,�L
2024/05/20,00:50,0.505,0.772,0.486,0.952,0.691,0.315,0.551,0.514,��,6.0,�L
2024/05/20,01:00,0.504,0.770,0.484,0.949,0.690,0.313,0.552,0.514,��쐼,6.0,�L
2024/05/20,01:10,0.504,0.771,0.485,0.952,0.690,0.315,0.550,0.515,��,5.7,�L
2024/05/20,01:20,0.502,0.770,0.484,0.950,0.690,0.314,0.550,0.516,��쐼,5.3,�L
2024/05/20,01:30,0.504,0.771,0.484,0.948,0.692,0.316,0.550,0.514,�쐼,6.1,�L
2024/05/20,01:40,0.504,0.771,0.485,0.948,0.690,0.316,0.550,0.515,���쐼,6.1,�L
2024/05/20,01:50,0.502,0.769,0.482,0.949,0.687,0.314,0.551,0.515,��,7.4,�L
2024/05/20,02:00,0.501,0.768,0.484,0.952,0.688,0.314,0.550,0.513,��,8.6,�L
2024/05/20,02:10,0.501,0.769,0.482,0.949,0.688,0.314,0.550,0.514,���쐼,7.3,�L
2024/05/20,02:20,0.502,0.769,0.481,0.949,0.690,0.313,0.549,0.514,��,6.5,�L
2024/05/20,02:30,0.500,0.770,0.482,0.948,0.689,0.314,0.550,0.513,���k��,5.0,�L
2024/05/20,02:40,0.501,0.768,0.481,0.952,0.688,0.312,0.549,0.513,��,3.5,�L
2024/05/20,02:50,0.502,0.768,0.483,0.947,0.689,0.314,0.549,0.514,��,2.6,�L
2024/05/20,03:00,0.501,0.768,0.481,0.947,0.688,0.314,0.550,0.513,���쐼,1.9,�L
2024/05/20,03:10,0.500,0.767,0.482,0.949,0.688,0.315,0.550,0.516,��쐼,1.5,�L
2024/05/20,03:20,0.501,0.768,0.482,0.949,0.688,0.315,0.551,0.514,��,3.0,�L
2024/05/20,03:30,0.500,0.767,0.482,0.949,0.687,0.312,0.549,0.513,�쐼,4.4,�L
2024/05/20,03:40,0.500,0.765,0.480,0.950,0.685,0.314,0.551,0.512,��쐼,6.2,�L
2024/05/20,03:50,0.501,0.765,0.480,0.948,0.685,0.313,0.549,0.513,�쐼,5.8,�L
2024/05/20,04:00,0.500,0.765,0.479,0.948,0.684,0.312,0.550,0.512,�쐼,6.3,�L
2024/05/20,04:10,0.498,0.763,0.479,0.948,0.683,0.313,0.548,0.512,�쐼,5.4,�L
2024/05/20,04:20,0.497,0.766,0.480,0.946,0.685,0.313,0.550,0.513,�쐼,5.0,�L
2024/05/20,04:30,0.499,0.765,0.480,0.948,0.684,0.312,0.548,0.512,��쐼,3.8,�L
2024/05/20,04:40,0.499,0.764,0.480,0.948,0.686,0.313,0.550,0.511,�쐼,3.8,�L
2024/05/20,04:50,0.500,0.765,0.480,0.947,0.683,0.313,0.547,0.512,�쐼,4.5,�L
2024/05/20,05:00,0.499,0.764,0.479,0.948,0.686,0.313,0.550,0.513,�쐼,3.9,�L
2024/05/20,05:10,0.498,0.764,0.480,0.949,0.685,0.314,0.549,0.512,�쐼,2.6,�L
2024/05/20,05:20,0.498,0.764,0.479,0.948,0.684,0.312,0.549,0.512,�쐼,1.5,�L
2024/05/20,05:30,0.498,0.765,0.477,0.946,0.685,0.314,0.548,0.512,��,0.9,�L
2024/05/20,05:40,0.500,0.763,0.479,0.949,0.683,0.313,0.548,0.511,��,1.2,�L
2024/05/20,05:50,0.497,0.762,0.478,0.946,0.682,0.313,0.547,0.512,��쓌,0.9,�L
2024/05/20,06:00,0.497,0.762,0.477,0.948,0.683,0.312,0.547,0.511,�쓌,0.8,�L
2024/05/20,06:10,0.499,0.761,0.479,0.948,0.682,0.313,0.546,0.509,�k��,0.9,��
2024/05/20,06:20,0.500,0.763,0.481,0.947,0.683,0.312,0.546,0.512,�k�k��,0.9,��
2024/05/20,06:30,0.501,0.761,0.478,0.947,0.684,0.313,0.547,0.511,�k��,0.6,��
2024/05/20,06:40,0.499,0.763,0.480,0.948,0.682,0.312,0.547,0.511,-,CALM,��
2024/05/20,06:50,0.498,0.763,0.480,0.949,0.683,0.312,0.546,0.512,-,CALM,�L
2024/05/20,07:00,0.498,0.762,0.481,0.950,0.682,0.312,0.546,0.513,��쓌,0.6,�L
2024/05/20,07:10,0.498,0.763,0.479,0.947,0.683,0.310,0.547,0.511,���쓌,0.6,�L
2024/05/20,07:20,0.497,0.761,0.479,0.947,0.684,0.310,0.547,0.512,�쓌,0.9,��
2024/05/20,07:30,0.498,0.761,0.478,0.948,0.683,0.311,0.545,0.510,��쓌,1.7,��
2024/05/20,07:40,0.496,0.759,0.479,0.949,0.684,0.311,0.546,0.510,��쓌,2.6,��
2024/05/20,07:50,0.496,0.759,0.478,0.947,0.682,0.310,0.546,0.511,�쓌,3.2,�L
2024/05/20,08:00,0.496,0.761,0.478,0.949,0.682,0.311,0.545,0.512,���쓌,3.8,�L
2024/05/20,08:10,0.494,0.758,0.476,0.948,0.678,0.309,0.543,0.508,�쓌,4.8,�L
2024/05/20,08:20,0.494,0.754,0.474,0.943,0.678,0.310,0.544,0.508,�쓌,3.8,�L
2024/05/20,08:30,0.491,0.752,0.475,0.945,0.675,0.307,0.542,0.507,��쓌,4.0,�L
2024/05/20,08:40,0.490,0.750,0.472,0.942,0.672,0.307,0.541,0.506,��,4.5,�L
2024/05/20,08:50,0.488,0.748,0.471,0.941,0.672,0.308,0.541,0.506,��,4.9,�L
2024/05/20,09:00,0.487,0.744,0.470,0.939,0.665,0.306,0.540,0.504,��,5.2,�L
2024/05/20,09:10,0.481,0.738,0.467,0.928,0.659,0.305,0.537,0.502,-,CALM,�L
2024/05/20,09:20,0.477,0.729,0.464,0.922,0.653,0.303,0.534,0.501,��,6.8,�L
2024/05/20,09:30,0.473,0.725,0.461,0.911,0.649,0.302,0.533,0.499,-,CALM,�L
2024/05/20,09:40,0.472,0.724,0.461,0.907,0.647,0.300,0.533,0.500,��,3.6,�L
2024/05/20,09:50,0.473,0.724,0.461,0.905,0.649,0.301,0.532,0.501,��쐼,3.5,�L
2024/05/20,10:00,0.476,0.723,0.462,0.906,0.648,0.303,0.534,0.501,��,4.1,�L
2024/05/20,10:10,0.474,0.724,0.461,0.904,0.647,0.303,0.532,0.500,��쐼,4.0,�L
2024/05/20,10:20,0.473,0.722,0.461,0.900,0.648,0.301,0.533,0.499,��쐼,3.3,�L
2024/05/20,10:30,0.472,0.722,0.461,0.901,0.645,0.302,0.532,0.500,��,2.8,�L
2024/05/20,10:40,0.473,0.722,0.462,0.899,0.646,0.303,0.534,0.500,��쓌,2.5,�L
2024/05/20,10:50,0.474,0.719,0.461,0.899,0.645,0.302,0.532,0.499,���쓌,2.2,�L
2024/05/20,11:00,0.473,0.718,0.460,0.897,0.644,0.301,0.531,0.497,�쓌,4.7,�L
2024/05/20,11:10,0.473,0.719,0.460,0.894,0.642,0.302,0.531,0.498,���쓌,7.2,�L
2024/05/20,11:20,0.472,0.717,0.461,0.894,0.641,0.301,0.532,0.499,�쓌,6.2,�L
2024/05/20,11:30,0.473,0.720,0.460,0.893,0.644,0.301,0.532,0.500,��,5.0,�L
2024/05/20,11:40,0.476,0.721,0.460,0.896,0.644,0.301,0.532,0.500,��,3.5,�L
2024/05/20,11:50,0.474,0.724,0.461,0.899,0.647,0.301,0.532,0.499,��쐼,3.2,��
2024/05/20,12:00,0.476,0.727,0.464,0.896,0.648,0.302,0.532,0.499,��쐼,3.1,��
2024/05/20,12:10,0.477,0.729,0.464,0.900,0.647,0.303,0.532,0.500,��,4.1,��
2024/05/20,12:20,0.477,0.727,0.466,0.899,0.649,0.301,0.534,0.502,��,4.7,��
2024/05/20,12:30,0.478,0.726,0.465,0.899,0.651,0.303,0.536,0.501,��,4.8,��
2024/05/20,12:40,0.478,0.728,0.465,0.899,0.652,0.303,0.535,0.500,��,5.7,��
2024/05/20,12:50,0.478,0.730,0.466,0.901,0.652,0.304,0.537,0.500,��,7.2,��
2024/05/20,13:00,0.479,0.730,0.466,0.902,0.652,0.304,0.538,0.502,��,8.1,��
2024/05/20,13:10,0.478,0.729,0.465,0.902,0.654,0.303,0.536,0.503,��쓌,6.4,��
2024/05/20,13:20,0.479,0.731,0.465,0.902,0.654,0.304,0.538,0.501,��,4.9,��
2024/05/20,13:30,0.481,0.730,0.467,0.901,0.655,0.303,0.536,0.502,��,5.6,��
2024/05/20,13:40,0.480,0.733,0.467,0.901,0.653,0.305,0.536,0.503,��쓌,8.6,��
2024/05/20,13:50,0.482,0.731,0.467,0.901,0.654,0.304,0.537,0.501,��쓌,8.0,��
2024/05/20,14:00,0.481,0.731,0.466,0.900,0.655,0.305,0.537,0.503,��쓌,7.3,��
2024/05/20,14:10,0.483,0.735,0.468,0.900,0.655,0.304,0.538,0.503,��,7.3,��
2024/05/20,14:20,0.481,0.733,0.468,0.901,0.657,0.305,0.538,0.501,��쓌,7.9,��
2024/05/20,14:30,0.481,0.735,0.467,0.901,0.656,0.304,0.539,0.503,��쓌,7.2,��
2024/05/20,14:40,0.482,0.735,0.469,0.901,0.657,0.306,0.538,0.502,��쓌,7.6,��
2024/05/20,14:50,0.481,0.736,0.469,0.902,0.656,0.304,0.538,0.505,��쓌,9.1,��
2024/05/20,15:00,0.482,0.737,0.468,0.900,0.658,0.306,0.537,0.502,��,9.5,��
2024/05/20,15:10,0.482,0.734,0.469,0.903,0.658,0.304,0.539,0.503,��쓌,9.1,��
2024/05/20,15:20,0.482,0.737,0.471,0.903,0.658,0.305,0.540,0.502,��쓌,7.3,��
2024/05/20,15:30,0.482,0.736,0.470,0.904,0.657,0.305,0.540,0.503,��쓌,8.7,��
2024/05/20,15:40,0.483,0.735,0.471,0.905,0.658,0.306,0.539,0.502,��쓌,7.7,��
2024/05/20,15:50,0.482,0.736,0.471,0.904,0.658,0.306,0.538,0.503,��쓌,5.8,��
2024/05/20,16:00,0.485,0.735,0.471,0.905,0.658,0.307,0.540,0.503,��쓌,7.3,��
2024/05/20,16:10,0.481,0.739,0.470,0.905,0.660,0.306,0.539,0.503,��쓌,8.2,��
2024/05/20,16:20,0.485,0.736,0.471,0.905,0.660,0.306,0.538,0.504,��,7.1,��
2024/05/20,16:30,0.483,0.738,0.470,0.907,0.659,0.306,0.539,0.503,��쓌,8.6,��
2024/05/20,16:40,0.485,0.739,0.471,0.906,0.659,0.307,0.538,0.502,��,5.7,��
2024/05/20,16:50,0.485,0.738,0.471,0.907,0.660,0.306,0.538,0.503,��,4.2,��
2024/05/20,17:00,0.483,0.737,0.469,0.907,0.659,0.306,0.538,0.502,��,2.3,��
2024/05/20,17:10,0.484,0.736,0.471,0.906,0.659,0.307,0.535,0.502,��,1.5,��
2024/05/20,17:20,0.484,0.739,0.471,0.907,0.659,0.306,0.538,0.504,�쓌,2.0,��
2024/05/20,17:30,0.485,0.739,0.472,0.905,0.660,0.306,0.538,0.504,��쓌,2.0,��
2024/05/20,17:40,0.483,0.741,0.472,0.906,0.660,0.306,0.538,0.503,��쓌,2.5,��
2024/05/20,17:50,0.482,0.739,0.470,0.907,0.660,0.306,0.537,0.504,��,2.0,��
2024/05/20,18:00,0.482,0.741,0.470,0.908,0.660,0.307,0.538,0.504,���쐼,2.0,��
2024/05/20,18:10,0.483,0.740,0.469,0.907,0.658,0.308,0.538,0.503,���쐼,1.5,��
2024/05/20,18:20,0.484,0.740,0.469,0.908,0.661,0.308,0.537,0.504,���쐼,1.5,��
2024/05/20,18:30,0.485,0.741,0.471,0.910,0.663,0.307,0.537,0.504,��,2.3,��
2024/05/20,18:40,0.486,0.741,0.472,0.910,0.661,0.307,0.538,0.507,��,1.2,��
2024/05/20,18:50,0.485,0.742,0.471,0.911,0.662,0.307,0.537,0.505,���k��,0.6,��
2024/05/20,19:00,0.486,0.742,0.471,0.911,0.662,0.308,0.538,0.505,���k��,1.4,��
2024/05/20,19:10,0.486,0.743,0.472,0.910,0.662,0.308,0.536,0.505,�k��,1.5,��
2024/05/20,19:20,0.488,0.742,0.473,0.911,0.664,0.308,0.537,0.506,��,1.1,��
2024/05/20,19:30,0.486,0.744,0.472,0.909,0.662,0.309,0.539,0.505,��,1.4,��
2024/05/20,19:40,0.485,0.741,0.472,0.910,0.663,0.309,0.540,0.506,�k��,2.8,��
2024/05/20,19:50,0.486,0.743,0.473,0.911,0.663,0.308,0.540,0.507,���k��,2.9,��
2024/05/20,20:00,0.486,0.743,0.474,0.913,0.664,0.309,0.539,0.505,�k��,2.0,��
2024/05/20,20:10,0.486,0.742,0.473,0.911,0.662,0.308,0.540,0.505,�k,3.7,��
2024/05/20,20:20,0.486,0.742,0.472,0.911,0.662,0.308,0.539,0.506,�k�k��,3.2,��
2024/05/20,20:30,0.487,0.741,0.472,0.909,0.662,0.309,0.539,0.506,�k�k��,4.3,��
2024/05/20,20:40,0.487,0.741,0.473,0.911,0.665,0.310,0.542,0.503,�k,4.7,��
2024/05/20,20:50,0.486,0.739,0.472,0.910,0.664,0.308,0.540,0.507,�k�k��,3.8,��
2024/05/20,21:00,0.485,0.741,0.474,0.912,0.663,0.309,0.541,0.505,�k�k��,3.0,��
2024/05/20,21:10,0.485,0.740,0.474,0.910,0.665,0.308,0.540,0.506,�k�k��,3.7,��
2024/05/20,21:20,0.485,0.741,0.473,0.912,0.665,0.309,0.543,0.506,�k��,3.2,��
2024/05/20,21:30,0.487,0.742,0.472,0.910,0.665,0.308,0.541,0.506,�k��,3.1,��
2024/05/20,21:40,0.486,0.741,0.474,0.911,0.662,0.308,0.541,0.507,�k�k��,2.3,��
2024/05/20,21:50,0.485,0.742,0.474,0.911,0.664,0.309,0.541,0.505,�k��,2.0,��
2024/05/20,22:00,0.487,0.741,0.473,0.910,0.663,0.309,0.541,0.507,���k��,2.9,��
2024/05/20,22:10,0.486,0.742,0.472,0.911,0.662,0.308,0.539,0.505,�k��,5.5,��
2024/05/20,22:20,0.486,0.742,0.473,0.914,0.663,0.308,0.541,0.507,�k��,5.0,��
2024/05/20,22:30,0.486,0.741,0.472,0.912,0.665,0.308,0.541,0.505,�k��,5.2,��
2024/05/20,22:40,0.485,0.744,0.472,0.910,0.665,0.309,0.542,0.505,�k��,5.2,��
2024/05/20,22:50,0.486,0.741,0.471,0.911,0.662,0.309,0.540,0.506,�k��,4.7,��
2024/05/20,23:00,0.486,0.741,0.472,0.911,0.663,0.309,0.541,0.506,�k��,3.9,��
2024/05/20,23:10,0.484,0.741,0.474,0.910,0.663,0.309,0.541,0.506,�k��,2.6,��
2024/05/20,23:20,0.485,0.741,0.471,0.910,0.664,0.308,0.541,0.506,�k��,3.1,��
2024/05/20,23:30,0.486,0.740,0.473,0.910,0.664,0.308,0.542,0.507,�k��,1.7,��
2024/05/20,23:40,0.486,0.740,0.472,0.910,0.664,0.308,0.540,0.505,�k��,2.0,��
2024/05/20,23:50,0.486,0.742,0.473,0.912,0.662,0.308,0.540,0.506,�k��,1.7,��
